Content
SEND FEEDBACK

Daily
Averages
Monthly
Summary
Hungary

SZEGED, HUNGARY


Home > Europe > Hungary
Elevation: 272 feet     Latitude: 46 15N     Longitude: 020 06E

WEATHER
 
SELECT A DAY
Number of Records: 43,603;   Date Range: 5/9/04 - 8/26/14
 
SHARE

PRINT THIS DATA

[ ← Previous Day ]
WEATHER ALMANAC - JANUARY 31, 2013
[ Next Day → ]
[ °C ]   °F
Weather ElementAverageHighLow
Temperature45.6 °F52 °F (1:00 pm)35.6 °F (10:45 pm)
Dewpoint35.2 °F41 °F (3:45 am)28.4 °F (3:45 pm)
Humidity67.9 %93 % (1:45 am)34 % (1:00 pm)
Barometer29.99 in30.06 in (10:45 am)29.86 in (1:00 am)
Wind Speed14.7 mph29.9 mph (12:15 pm)
Wind Gust42.6 mph (12:45 pm)
Weather ElementAverage
Visibility8.6 mi
Wind DirectionW (265.4 °)

Weather ElementTotal
Precipitation---
Heating Degree Days21.2 (Base 65)
Averaged from 41 records on January 31, 2013
WEATHER CONDITIONS BREAKOUT
WIND DIRECTION BREAKOUT
WEATHER BY HOUR - JANUARY 31, 2013
[ °C ]   °F
Local TimeTemperatureDewpointHumidityBarometerVisibilityWind DirectionWind SpeedGust SpeedPrecipitationEventsConditions
1:00 AM41.0 °F38.0 °F85 %29.86 in9.0 miSouth (190°)8.9 mphPartly Cloudy
1:45 AM41.0 °F39.2 °F93 %29.86 inSouth (180°)1.2 mphClear
3:45 AM44.6 °F41.0 °F87 %29.92 inWNW (290°)16.1 mphClear
4:45 AM44.6 °F41.0 °F87 %29.89 inWNW (290°)11.5 mphClear
5:15 AM46.4 °F41.0 °F81 %29.92 inWNW (290°)17.3 mphClear
5:45 AM48.2 °F39.2 °F71 %29.95 in6.2 miWNW (300°)18.4 mphRainLight Rain
6:15 AM48.2 °F39.2 °F71 %29.95 in6.2 miWNW (290°)19.6 mphRainLight Rain
6:45 AM46.4 °F39.2 °F76 %29.95 in6.2 miWNW (300°)18.4 mphRainLight Rain
7:00 AM47.0 °F39.0 °F65 %29.94 in7.0 miWNW (300°)17.9 mphRainLight Rain
7:15 AM46.4 °F39.2 °F76 %29.95 in6.2 miNW (310°)16.1 mphOvercast
7:45 AM46.4 °F37.4 °F71 %29.98 in6.2 miNW (310°)16.1 mphMostly Cloudy
8:15 AM46.4 °F37.4 °F71 %30.01 in6.2 miWNW (300°)16.1 mphMostly Cloudy
8:45 AM46.4 °F37.4 °F71 %30.04 in6.2 miWNW (300°)15.0 mphMostly Cloudy
9:15 AM44.6 °F37.4 °F76 %30.04 inWNW (290°)12.7 mphClear
9:45 AM48.2 °F39.2 °F71 %30.04 inWNW (290°)12.7 mphClear
10:15 AM50.0 °F37.4 °F62 %30.04 inWNW (300°)18.4 mphClear
10:45 AM50.0 °F39.2 °F66 %30.06 in6.2 miNW (310°)24.2 mphPartly Cloudy
11:15 AM51.8 °F39.2 °F62 %30.04 in6.2 miWNW (300°)26.5 mphPartly Cloudy
12:15 PM51.8 °F35.6 °F54 %30.04 in6.2 miNW (310°)29.9 mphPartly Cloudy
12:45 PM51.8 °F32.0 °F47 %30.04 in6.2 miNW (310°)29.9 mph42.6 mphPartly Cloudy
1:00 PM52.0 °F32.0 °F34 %30.05 in25.0 miNW (310°)29.1 mphPartly Cloudy
1:15 PM51.8 °F33.8 °F50 %30.04 in6.2 miNW (320°)24.2 mphPartly Cloudy
1:45 PM51.8 °F30.2 °F44 %30.04 inNW (310°)27.6 mphClear
2:15 PM51.8 °F30.2 °F44 %30.04 inNW (310°)21.9 mphClear
2:45 PM51.8 °F30.2 °F44 %30.04 inWNW (300°)16.1 mphClear
3:15 PM51.8 °F32.0 °F47 %30.01 inWNW (300°)16.1 mphClear
3:45 PM51.8 °F28.4 °F41 %30.01 inNW (310°)15.0 mphClear
4:15 PM48.2 °F32.0 °F54 %30.01 in6.2 miNW (310°)10.4 mphScattered Clouds
4:45 PM46.4 °F32.0 °F57 %30.01 inWest (280°)8.1 mphClear
5:15 PM46.4 °F32.0 °F57 %30.01 inWest (270°)4.6 mphClear
5:45 PM41.0 °F32.0 °F70 %30.01 inSSW (200°)5.8 mphClear
6:15 PM42.8 °F32.0 °F66 %30.01 inSW (220°)5.8 mphClear
6:45 PM39.2 °F32.0 °F75 %30.01 inSouth (190°)6.9 mphClear
7:00 PM40.0 °F31.0 °F61 %30.02 in25.0 miSouth (190°)6.7 mphPartly Cloudy
7:15 PM41.0 °F32.0 °F70 %30.01 inSouth (180°)6.9 mphClear
7:45 PM37.4 °F33.8 °F87 %29.98 inSSW (200°)8.1 mphClear
8:15 PM37.4 °F33.8 °F87 %29.98 inSSW (200°)8.1 mphClear
8:45 PM37.4 °F33.8 °F87 %29.95 inSouth (180°)11.5 mphClear
9:45 PM37.4 °F33.8 °F87 %29.92 inSouth (190°)6.9 mphClear
10:45 PM35.6 °F33.8 °F93 %29.89 inSouth (180°)6.9 mphClear
11:45 PM37.4 °F33.8 °F87 %29.92 inSouth (170°)9.2 mphClear
Hourly data recorded from LHUD, located miles away from Szeged, Hungary







STORIES FROM OUR PARTNERS